028  
ASUS41 KLWX 211511  
RWRLWX  
 
REGIONAL WEATHER ROUNDUP  
NATIONAL WEATHER SERVICE BALTIMORE MD/WASHINGTON DC  
1100 AM EDT SUN JUL 21 2024  
 
NOTE: "FAIR" INDICATES FEW OR NO CLOUDS BELOW 12,000 FEET  
WITH NO SIGNIFICANT WEATHER AND/OR S TO VISIBILITY
.  
TC=TEMPERATURE CELSIUS  
 
* =NON NWS SITE. STATION DOES NOT REPORT PRECIPITATION (E.G. RAIN,  
SNOW, ETC.), THUNDER, OR FOG.
 
 
DCZ001-MDZ009-015-VAZ040>042-051-053>054-211600-  
WASHINGTON METRO  
 
CITY SKY/WX TMP DP RH WIND PRES REMARKS
 
WASHINGTON NAT MOSUNNY 83 69 62 E5 30.05R  
DULLES MOSUNNY 84 68 58 CALM 30.06S  
ANDREWS AFB SUNNY 84 67 55 CALM 30.03S  
FT BELVOIR SUNNY 83 70 64 CALM 30.03S  
QUANTICO SUNNY 81 73 76 MISG 30.07R  
COLLEGE PARK* MOSUNNY 83 69 63 S3 30.05S  
LEESBURG* MOSUNNY 82 72 69 NE5 30.08S  
MANASSAS* SUNNY 83 70 64 NE6 30.06S  
GAITHERSBURG* SUNNY 83 69 62 CALM 30.08S  
 

 
 
MDZ006>007-011-014-211600-  
BALTIMORE METRO  
 
CITY SKY/WX TMP DP RH WIND PRES REMARKS
 
BWI AIRPORT MOSUNNY 85 69 58 NE5 30.04S  
BALT INNER HAR N/A 86 70 58 MISG 30.04S HX 90  
MARTIN STATE MOSUNNY 82 70 65 SE5 30.06S  
ANNAPOLIS SUNNY 80 71 74 E3 30.05R  
FORT MEADE* SUNNY 81 68 65 S3 30.07F  
 

 
 
MDZ012-015-019>023-211600-  
MARYLAND EASTERN SHORE  
 
CITY SKY/WX TMP DP RH WIND PRES REMARKS
 
OCEAN CITY MOSUNNY 79 70 74 VRB5 30.07R  
SALISBURY MOSUNNY 81 70 69 VRB3 30.06S  
BAY BRIDGE AP* SUNNY 81 75 83 NW6 30.05S  
CAMBRIDGE* MOSUNNY 81 72 74 E5 30.05S  
EASTON* PTSUNNY 81 72 74 CALM 30.05R  
 

 
 
MDZ017>025-211600-  
SOUTHERN MARYLAND  
 
CITY SKY/WX TMP DP RH WIND PRES REMARKS
 
PATUXENT RIVER PTSUNNY 82 72 71 E5 30.05S  
ST INIGOES PTSUNNY 81 74 79 SW3 30.05R  
 

 
 
MDZ003>005-211600-  
NORTH CENTRAL MARYLAND  
 
CITY SKY/WX TMP DP RH WIND PRES REMARKS
 
FREDERICK* SUNNY 84 70 61 CALM 30.06S  
HAGERSTOWN APT SUNNY 82 66 58 NE5 30.06F  
WESTMINSTER* NOT AVBL  
 

 
 
MDZ501>502-211600-  
WESTERN MARYLAND  
 
CITY SKY/WX TMP DP RH WIND PRES REMARKS
 
OAKLAND* MOSUNNY 73 55 53 VRB6 30.18S  
CUMBERLAND* MOSUNNY 81 60 49 SE5 30.12F  
 

 
 
VAZ025>031-211600-  
SHENANDOAH VALLEY  
 
CITY SKY/WX TMP DP RH WIND PRES REMARKS
 
WINCHESTER* MOSUNNY 81 59 47 N3 30.06F  
NEW MARKET* MOSUNNY 85 61 43 N7 30.08F  
STAUNTON* SUNNY 81 62 51 CALM 30.12F  
WAYNESBORO* SUNNY 81 61 51 N5 30.12S  
 

 
 
WVZ021-048>050-054>055-211600-  
EASTERN WEST VIRGINIA PANHANDLE  
 
CITY SKY/WX TMP DP RH WIND PRES REMARKS
 
MARTINSBURG SUNNY 82 63 52 VRB5 30.06S  
PETERSBURG* MOSUNNY 82 59 46 VRB3 30.09F  
 

 
 
VAZ036>039-050-211600-  
CENTRAL FOOTHILLS  
 
CITY SKY/WX TMP DP RH WIND PRES REMARKS
 
CHARLOTTESVILL SUNNY 85 64 49 VRB5 30.07S  
CULPEPER* SUNNY 77 72 84 CALM 30.08R  
ORANGE* SUNNY 81 68 65 SE3 30.09S  
GORDONSVILLE* SUNNY 82 69 66 E5 30.07S  
WARRENTON* SUNNY 78 70 77 E5 30.07S  
 

 
 
VAZ055>057-211600-  
NORTH AND CENTRAL PIEDMONT  
 
CITY SKY/WX TMP DP RH WIND PRES REMARKS
 
FREDERICKSBRG* MOSUNNY 82 71 69 CALM 30.05S  
 

 
 
NCZ024-NYZ072-PAZ021-071-VAZ022-071-211600-  
OTHER REGIONAL OBSERVATIONS  
 
CITY SKY/WX TMP DP RH WIND PRES REMARKS
 
NEW YORK CITY MOSUNNY 81 66 60 VRB5 30.05S  
PHILADELPHIA PTSUNNY 81 67 62 SW7 30.04S  
PITTSBURGH CLOUDY 74 56 53 NE5 30.13R  
ROANOKE MOSUNNY 81 66 60 CALM 30.14R  
RICHMOND PTSUNNY 81 72 74 SW5 30.06S  
RALEIGH CLOUDY 80 73 79 SW7 30.10R  
 

 
 
ANZ530>537-211600-  
MARINE OBSERVATIONS  
 
STATION/POSITION TIME TEMP WIND PRES
 
AIR SEA DIR/SP/G  
(UTC) (F) (DEG/KT/KT) (MB)  
THOMAS PT LIGHT 1500 80 130/ 2/ 2 1018.7R  
TOLCHESTER 1430 79 84 1017.5S  
GOOSES REEF 1442 79 83 30/ 4/ 4 N/A  
COVE POINT 1430 78 1017.8R  
BALT HARBOR 1430 79 84 N/A  
BALT KEY BRIDGE 1430 79 1017.7F  
ANNAPOLIS USNA 1430 79 87 1017.0S  
ANNAPOLIS CBIBS 1448 81 83 130/ 2/ 4 N/A  
WASH DC CHANNEL 1430 81 85 1017.4S  
DAHLGREN 1430 80 83 1016.9R  
LEWISETTA 1430 79 82 1017.9R  
SOLOMONS ISLAND 1430 79 83 1017.6R  
PINEY POINT 1418 290/ 1/ 3 N/A  
POTOMAC BUOY 1436 79 83 170/ 2/ 2 N/A  
CAMBRIDGE PIER 1430 80 83 1018.1R  
BISHOPS HEAD 1430 78 80 1018.0S  
CHESAPEAKE CITY 1430 80 86 1017.4S  
 

 
 
 
 
CLICK HERE TO GO TO PREVIOUS BULLETINS.

The Nexlab VA Page
The Nexlab MD Page
The Nexlab WV Page Main Text Page